Location: Clanezzo
(45.7500°N, 9.6000°E)
Time: 12:42:24
(UTC+00:00)

X-37B - Visible Passes

Search period start: 22 January 2022 00:00
Search period end: 01 February 2022 00:00
Orbit: 334 x 337 km, 45.0° (Epoch: 11 January)

Date Brightness Start Highest point End Pass type
(mag) Time Alt. Az. Time Alt. Az. Time Alt. Az.
27 Jan 2.3 17:37:18 10° SSW 17:39:16 17° SSE 17:39:47 16° SE visible
28 Jan 1.3 17:56:53 10° SW 17:59:28 33° SSE 17:59:29 33° SSE visible
29 Jan 1.4 18:17:01 10° WSW 18:19:08 42° SW 18:19:08 42° SW visible
30 Jan 1.5 17:02:19 10° SW 17:04:54 32° SSE 17:07:31 10° E visible
30 Jan 2.6 18:37:23 10° W 18:38:45 25° WSW 18:38:45 25° WSW visible
31 Jan 0.6 17:22:27 10° WSW 17:25:14 56° SSE 17:27:08 18° E visible
31 Jan 3.7 18:57:49 10° W 18:58:21 14° W 18:58:21 14° W visible
